Location: Riverton
(43.0250°N, 108.3790°W)
Time: 13:59:00
(UTC-06:00)

Amateur Radio Satellites - All Passes

Search period start: 30 August 2015 13:29
Search period end: 31 August 2015 13:29
Location: Riverton, 43.0250°N, 108.3790°W

Satellite Date Start Highest point End Downlink Frequencies (MHz)
Time Altitude Azimuth
Gurwin Techsat 1B 30 Aug 13:32:34 13:36:28 22° 63° (ENE) 13:40:30 435.225
ISS 30 Aug 13:38:30 13:40:49 18° 3° (N) 13:43:09 145.825
DANDE 30 Aug 13:42:53 13:48:49 25° 272° (W) 13:55:02 436.750
GONETS M04 30 Aug 13:52:32 14:00:43 42° 71° (ENE) 14:09:00
JAS-2 30 Aug 13:55:56 14:01:57 27° 60° (ENE) 14:08:16 435.910
Cosmos 2499 30 Aug 13:56:18 13:58:53 12° 49° (NE) 14:02:04 435.465 / 435.565
TISAT 1 30 Aug 13:57:56 14:02:15 84° 105° (ESE) 14:06:31 437.305
ESTCUBE 1 30 Aug 13:58:29 14:01:32 18° 295° (WNW) 14:04:27 437.505/2401.250
ITAMSAT 1 30 Aug 13:59:04 14:03:29 30° 66° (ENE) 14:07:59 435.822/435.867
BEESAT 30 Aug 14:03:48 14:06:44 17° 90° (E) 14:09:52 436.000
AO-7 30 Aug 14:23:38 14:29:41 24° 52° (NE) 14:35:58 29.400- 29.500
SPROUT 30 Aug 14:23:54 14:27:44 30° 291° (WNW) 14:31:30 437.525
CUBEBUG 1 30 Aug 14:24:09 14:25:53 12° 298° (WNW) 14:27:25 437.445
SWISSCUBE 30 Aug 14:28:34 14:32:48 32° 96° (E) 14:37:04 437.505
Oscar 19 30 Aug 14:42:53 14:47:27 31° 265° (W) 14:52:01 437.125/150
BEESAT 3 30 Aug 14:49:40 14:51:18 12° 110° (ESE) 14:53:08 437.485
RS-15 30 Aug 14:51:59 14:55:51 13° 97° (E) 15:00:46 29.354- 29.394
BEESAT 2 30 Aug 14:59:38 15:01:06 12° 110° (ESE) 15:02:47 435.950
ITUPSAT 1 30 Aug 15:05:59 15:10:45 68° 102° (ESE) 15:15:30 437.325
Gurwin Techsat 1B 30 Aug 15:10:54 15:16:06 54° 260° (W) 15:21:19 435.225
ISS 30 Aug 15:14:51 15:17:54 35° 23° (NNE) 15:20:56 145.825
STARS 30 Aug 15:26:14 15:27:04 11° 87° (E) 15:28:11 437.465
TISAT 1 30 Aug 15:36:33 15:37:24 10° 299° (WNW) 15:38:01 437.305
ITAMSAT 1 30 Aug 15:38:10 15:42:55 36° 263° (W) 15:47:39 435.822/435.867
JAS-2 30 Aug 15:38:38 15:46:17 76° 258° (WSW) 15:54:13 435.910
KKS-1 30 Aug 15:38:43 15:42:25 25° 94° (E) 15:46:12 437.445
BEESAT 30 Aug 15:40:20 15:44:59 54° 288° (WNW) 15:49:36 436.000
Cosmos 2499 30 Aug 15:46:06 15:54:40 56° 75° (ENE) 16:02:43 435.465 / 435.565
HORYU 2 30 Aug 15:48:40 15:52:52 40° 70° (ENE) 15:57:06 437.375
GONETS M04 30 Aug 15:49:26 15:57:42 46° 271° (W) 16:05:53
SWISSCUBE 30 Aug 16:06:29 16:10:36 29° 293° (WNW) 16:14:38 437.505
AO-7 30 Aug 16:13:12 16:21:35 88° 252° (WSW) 16:29:59 29.400- 29.500
BEESAT 3 30 Aug 16:24:43 16:28:45 65° 306° (NW) 16:32:50 437.485
BEESAT 2 30 Aug 16:34:34 16:38:39 69° 305° (NW) 16:42:46 435.950
ITUPSAT 1 30 Aug 16:45:23 16:48:09 15° 298° (WNW) 16:50:44 437.325
ISS 30 Aug 16:51:17 16:54:19 36° 221° (SW) 16:57:20 145.825
RS-15 30 Aug 16:55:29 17:06:09 66° 116° (ESE) 17:17:20 29.354- 29.394
STARS 30 Aug 16:59:40 17:04:08 75° 285° (WNW) 17:08:33 437.465
AIST 2 30 Aug 17:00:59 17:05:03 47° 118° (ESE) 17:09:09 435.215
Cubesat XI-IV 30 Aug 17:08:24 17:11:06 15° 60° (ENE) 17:14:02 437.490
KKS-1 30 Aug 17:15:04 17:19:06 32° 291° (WNW) 17:23:04 437.445
MOZHAYETS 4 30 Aug 17:16:45 17:21:05 41° 98° (E) 17:25:23
HORYU 2 30 Aug 17:26:16 17:29:42 20° 268° (W) 17:32:59 437.375
JAS-2 30 Aug 17:28:21 17:32:44 15° 278° (W) 17:36:39 435.910
Cosmos 2499 30 Aug 17:39:54 17:47:26 33° 276° (W) 17:54:23 435.465 / 435.565
CUTE-I 30 Aug 17:51:28 17:56:09 33° 67° (ENE) 18:00:54 437.470
BEESAT 3 30 Aug 18:06:20 18:07:32 11° 326° (NNW) 18:08:35 437.485
AO-7 30 Aug 18:09:59 18:15:40 19° 272° (W) 18:20:52 29.400- 29.500
BEESAT 2 30 Aug 18:16:02 18:17:30 11° 326° (NW) 18:18:50 435.950
AIST 1 30 Aug 18:38:56 18:40:28 12° 65° (ENE) 18:42:13
AIST 2 30 Aug 18:40:27 18:43:51 22° 317° (NW) 18:47:12 435.215
Cubesat XI-IV 30 Aug 18:45:14 18:50:34 84° 254° (WSW) 18:55:57 437.490
O/OREOS (USA 219) 30 Aug 18:48:09 18:50:44 16° 101° (E) 18:53:32 437.305
MOZHAYETS 4 30 Aug 18:54:35 18:58:03 21° 294° (WNW) 19:01:25
HO-68 30 Aug 18:59:29 19:03:40 17° 53° (NE) 19:08:09 435.675
BRITE-PL 30 Aug 19:05:27 19:08:53 24° 66° (ENE) 19:12:38 437.365/2234.400
CUBESAT XI-V 30 Aug 19:06:35 19:11:07 52° 99° (E) 19:15:39 437.345
RS-15 30 Aug 19:08:51 19:19:18 44° 323° (NW) 19:30:08 29.354- 29.394
CUTE-I 30 Aug 19:31:24 19:36:13 33° 264° (W) 19:40:59 437.470
GOMX 1 30 Aug 19:40:29 19:44:26 32° 68° (ENE) 19:48:43 467.674
CUTE 1.7 + AOD 2 30 Aug 19:44:47 19:47:03 15° 64° (ENE) 19:49:30 437.475
CANX-2 30 Aug 19:57:30 20:00:43 22° 67° (ENE) 20:04:03 2200.000
DOVE 4 30 Aug 20:00:18 20:04:19 31° 68° (ENE) 20:08:39 437.250
STRAND 1 30 Aug 20:02:09 20:07:05 48° 99° (E) 20:12:02 437.568
Cosmos 2491 30 Aug 20:02:22 20:10:27 41° 71° (ENE) 20:18:40 435.465 / 435.565
PRISM 30 Aug 20:07:09 20:10:57 36° 98° (E) 20:14:46 437.425
AIST 1 30 Aug 20:14:22 20:18:40 65° 264° (W) 20:22:57
YUBILEINY 30 Aug 20:14:43 20:20:03 19° 78° (ENE) 20:25:51 435.215
SEEDS 30 Aug 20:20:54 20:24:28 27° 69° (ENE) 20:28:05 437.485
O/OREOS (USA 219) 30 Aug 20:25:18 20:29:45 54° 297° (WNW) 20:34:16 437.305
Cubesat XI-IV 30 Aug 20:30:34 20:31:38 10° 275° (W) 20:32:17 437.490
HO-68 30 Aug 20:43:16 20:50:25 79° 72° (ENE) 20:57:39 435.675
BRITE-PL 30 Aug 20:43:18 20:47:16 34° 265° (W) 20:51:30 437.365/2234.400
COMPASS 1 30 Aug 20:44:34 20:48:27 37° 71° (ENE) 20:52:21 437.405
CUBESAT XI-V 30 Aug 20:45:01 20:48:12 18° 295° (WNW) 20:51:15 437.345
CUBEBUG 2 30 Aug 20:54:17 20:57:55 24° 66° (ENE) 21:01:43 437.445
CINEMA 3 30 Aug 20:54:31 20:59:00 49° 72° (ENE) 21:03:44 145.822/145.860
AAUSAT CUBESAT 2 30 Aug 20:55:49 20:59:45 42° 72° (ENE) 21:03:44 437.432
ZACube-1 30 Aug 21:00:46 21:03:33 17° 64° (ENE) 21:06:30 437.345
UWE-3 30 Aug 21:03:56 21:07:30 23° 66° (ENE) 21:11:13 435.000/436.395/437.385
FUNcube-1 30 Aug 21:06:27 21:09:29 18° 65° (ENE) 21:12:40 145.935
CUTE 1.7 + AOD 2 30 Aug 21:18:19 21:22:33 57° 260° (W) 21:26:47 437.475
GOMX 1 30 Aug 21:18:47 21:22:37 27° 268° (W) 21:26:39 467.674
RS-15 30 Aug 21:26:54 21:35:45 25° 355° (N) 21:44:52 29.354- 29.394
DELFI C3 30 Aug 21:29:06 21:32:33 28° 70° (ENE) 21:36:03 145.870
CANX-2 30 Aug 21:32:29 21:36:27 36° 263° (W) 21:40:25 2200.000
DOVE 4 30 Aug 21:38:05 21:42:05 29° 267° (W) 21:46:16 437.250
STRAND 1 30 Aug 21:42:03 21:46:01 23° 296° (WNW) 21:49:52 437.568
PRISM 30 Aug 21:43:08 21:46:10 20° 294° (WNW) 21:49:07 437.425
DX 1 30 Aug 21:47:52 21:49:29 12° 62° (ENE) 21:51:18 434.975-435.025
Oscar 11 30 Aug 21:54:40 21:59:01 85° 77° (ENE) 22:03:24 145.826/435.025
HUMSAT D 30 Aug 21:55:08 21:58:28 23° 67° (ENE) 22:01:55 437.325/437.525
SEEDS 30 Aug 21:56:31 22:00:12 27° 265° (W) 22:03:50 437.485
Cosmos 2491 30 Aug 21:59:15 22:07:29 46° 271° (W) 22:15:38 435.465 / 435.565
UKube-1 30 Aug 22:01:30 22:03:53 15° 63° (ENE) 22:06:27 .
AISAT 30 Aug 22:05:04 22:06:44 12° 62° (ENE) 22:08:36 437.250
YUBILEINY 30 Aug 22:06:58 22:15:46 90° 99° (E) 22:24:40 435.215
50 SAT 30 Aug 22:17:24 22:19:47 16° 66° (ENE) 22:22:17 437.505
COMPASS 1 30 Aug 22:21:09 22:24:16 19° 268° (W) 22:27:16 437.405
CUBEBUG 2 30 Aug 22:30:01 22:34:23 39° 264° (W) 22:38:49 437.445
VELOX 1 30 Aug 22:31:48 22:35:05 22° 66° (ENE) 22:38:30 145.980
AAUSAT CUBESAT 2 30 Aug 22:32:43 22:35:34 17° 269° (W) 22:38:17 437.432
CINEMA 3 30 Aug 22:33:09 22:36:33 19° 271° (W) 22:39:53 145.822/145.860
HO-68 30 Aug 22:33:56 22:39:02 20° 271° (W) 22:43:51 435.675
ZACube-1 30 Aug 22:35:01 22:39:29 57° 260° (W) 22:44:02 437.345
UWE-3 30 Aug 22:39:29 22:43:48 39° 263° (W) 22:48:12 435.000/436.395/437.385
FUNcube-1 30 Aug 22:41:01 22:45:26 50° 261° (W) 22:49:55 145.935
TIGRISAT 30 Aug 22:41:09 22:43:28 14° 88° (E) 22:45:59 435.000
ANTELSAT 30 Aug 22:56:52 23:00:20 22° 92° (E) 23:03:51 437.575/2403.000
DELFI C3 30 Aug 23:04:15 23:07:36 24° 266° (W) 23:10:54 145.870
BEESAT 3 30 Aug 23:05:37 23:07:48 14° 37° (NE) 23:10:04 437.485
BEESAT 2 30 Aug 23:16:00 23:18:09 14° 37° (NE) 23:20:24 435.950
DX 1 30 Aug 23:20:53 23:25:11 73° 258° (WSW) 23:29:33 434.975-435.025
ESTCUBE 1 30 Aug 23:21:01 23:25:21 51° 73° (ENE) 23:29:43 437.505/2401.250
HUMSAT D 30 Aug 23:30:03 23:34:02 35° 264° (W) 23:38:00 437.325/437.525
POLYITAN 1 30 Aug 23:33:58 23:36:59 19° 92° (E) 23:40:07 437.675
UKube-1 30 Aug 23:35:23 23:39:37 56° 259° (W) 23:43:53 .
POPSAT HIP 1 30 Aug 23:36:57 23:40:03 20° 92° (E) 23:43:16 437.405
AISAT 30 Aug 23:38:21 23:42:45 75° 258° (WSW) 23:47:11 437.250
DUCHIFAT 1 30 Aug 23:38:26 23:41:32 20° 92° (E) 23:44:43 145.980
CUBEBUG 1 30 Aug 23:42:28 23:46:45 71° 75° (ENE) 23:51:06 437.445
RS-15 30 Aug 23:42:35 23:52:51 35° 29° (NNE) 00:03:41 29.354- 29.394
SPROUT 30 Aug 23:43:19 23:46:39 23° 67° (ENE) 23:50:05 437.525
AUBIESAT-1 30 Aug 23:45:39 23:49:20 35° 101° (ESE) 23:52:45 437.475
Cosmos 2504 30 Aug 23:46:49 23:54:40 59° 91° (E) 00:03:02 435.465 / 435.565
UNISAT 6 30 Aug 23:47:03 23:51:40 72° 101° (E) 23:56:08 437.425
M-CUBED/EXP-1 PRIME 30 Aug 23:49:45 23:53:41 49° 104° (ESE) 23:57:17 437.505
50 SAT 30 Aug 23:50:12 23:53:59 43° 261° (W) 23:57:48 437.505
BUGSAT 1 30 Aug 23:51:13 23:53:57 17° 91° (E) 23:56:50 437.445
QB50P2 30 Aug 23:53:07 23:56:55 30° 95° (E) 00:00:45 145.880/145.840
NANOSAT C BR1 30 Aug 23:55:01 23:58:49 30° 95° (E) 00:02:37 145.865
VELOX 1 31 Aug 00:07:18 00:11:25 38° 263° (W) 00:15:33 145.980
YUBILEINY 31 Aug 00:07:41 00:14:05 21° 301° (WNW) 00:20:08 435.215
QB50P1 31 Aug 00:08:01 00:12:07 43° 98° (E) 00:16:13 145.935-145.965
TIGRISAT 31 Aug 00:16:10 00:20:43 59° 287° (WNW) 00:25:07 435.000
ANTELSAT 31 Aug 00:33:00 00:37:17 38° 290° (WNW) 00:41:26 437.575/2403.000
ITUPSAT 1 31 Aug 00:39:53 00:41:06 11° 59° (ENE) 00:42:36 437.325
BEESAT 3 31 Aug 00:42:15 00:46:18 82° 239° (WSW) 00:50:17 437.485
TISAT 1 31 Aug 00:50:35 00:54:45 69° 75° (ENE) 00:58:59 437.305
CUSAT 1 31 Aug 00:52:03 00:55:50 77° 97° (E) 01:00:57 437.405
BEESAT 2 31 Aug 00:52:42 00:56:48 85° 233° (SW) 01:00:48 435.950
ESTCUBE 1 31 Aug 00:59:43 01:02:34 16° 270° (W) 01:05:14 437.505/2401.250
POLYITAN 1 31 Aug 01:09:01 01:13:05 40° 289° (WNW) 01:17:05 437.675
BEESAT 31 Aug 01:11:05 01:14:42 23° 65° (ENE) 01:18:26 436.000
POPSAT HIP 1 31 Aug 01:12:04 01:16:05 38° 289° (WNW) 01:20:03 437.405
DANDE 31 Aug 01:12:52 01:16:14 75° 98° (E) 01:20:46 436.750
DUCHIFAT 1 31 Aug 01:13:29 01:17:30 38° 289° (WNW) 01:21:26 145.980
Oscar 19 31 Aug 01:16:50 01:17:36 10° 85° (E) 01:18:44 437.125/150
SPROUT 31 Aug 01:18:39 01:22:34 34° 264° (W) 01:26:30 437.525
AUBIESAT-1 31 Aug 01:20:54 01:23:48 19° 300° (WNW) 01:26:27 437.475
AIST 2 31 Aug 01:21:46 01:25:46 41° 50° (NE) 01:29:42 435.215
CUBEBUG 1 31 Aug 01:22:34 01:23:42 11° 273° (W) 01:24:35 437.445
M-CUBED/EXP-1 PRIME 31 Aug 01:25:35 01:28:03 15° 303° (WNW) 01:30:18 437.505
UNISAT 6 31 Aug 01:25:36 01:27:52 13° 298° (WNW) 01:29:56 437.425
BUGSAT 1 31 Aug 01:25:36 01:29:40 44° 288° (WNW) 01:33:42 437.445
SO-50 31 Aug 01:28:00 01:32:18 35° 116° (ESE) 01:36:47 436.795
QB50P2 31 Aug 01:29:08 01:32:43 25° 292° (WNW) 01:36:11 145.880/145.840
NANOSAT C BR1 31 Aug 01:30:59 01:34:33 25° 292° (WNW) 01:38:01 145.865
SWISSCUBE 31 Aug 01:35:55 01:40:21 41° 70° (ENE) 01:44:51 437.505
Cosmos 2504 31 Aug 01:40:11 01:47:26 32° 293° (WNW) 01:54:51 435.465 / 435.565
QB50P1 31 Aug 01:44:38 01:47:41 19° 294° (WNW) 01:50:37 145.935-145.965
PCSat 31 Aug 01:49:09 01:53:27 25° 109° (ESE) 01:57:52 145.827
RS-15 31 Aug 01:55:20 02:07:14 87° 57° (ENE) 02:19:32 29.354- 29.394
ITUPSAT 1 31 Aug 02:13:32 02:18:20 87° 78° (ENE) 02:23:09 437.325
STARS 31 Aug 02:24:02 02:25:38 12° 61° (ENE) 02:27:27 437.465
TISAT 1 31 Aug 02:30:08 02:31:06 10° 273° (W) 02:31:46 437.305
KKS-1 31 Aug 02:37:50 02:41:32 27° 68° (ENE) 02:45:19 437.445
CUSAT 1 31 Aug 02:38:18 02:39:42 11° 307° (NW) 02:40:56 437.405
BEESAT 31 Aug 02:47:46 02:52:18 42° 262° (W) 02:56:51 436.000
JAS-2 31 Aug 02:50:27 02:54:25 16° 82° (E) 02:58:30 435.910
Oscar 19 31 Aug 02:52:36 02:57:51 87° 103° (ESE) 03:03:04 437.125/150
GONETS M04 31 Aug 02:54:50 03:02:51 45° 89° (E) 03:11:02
AIST 2 31 Aug 03:00:55 03:04:05 20° 247° (WSW) 03:07:06 435.215
SO-50 31 Aug 03:08:26 03:12:52 34° 314° (NW) 03:17:23 436.795
SWISSCUBE 31 Aug 03:14:39 03:18:24 22° 267° (W) 03:22:03 437.505
Gurwin Techsat 1B 31 Aug 03:25:59 03:31:13 57° 100° (E) 03:36:27 435.225
PCSat 31 Aug 03:31:21 03:36:36 49° 306° (NW) 03:41:53 145.827
ITAMSAT 1 31 Aug 03:49:22 03:54:34 75° 102° (ESE) 03:59:46 435.822/435.867
VERMONT LUNAR 31 Aug 03:52:49 03:53:57 12° 152° (SSE) 03:55:08 437.305
ITUPSAT 1 31 Aug 03:56:24 03:56:59 10° 274° (W) 03:57:14 437.325
STARS 31 Aug 03:57:05 04:01:30 77° 257° (WSW) 04:05:58 437.465
RS-15 31 Aug 04:09:06 04:18:37 27° 256° (WSW) 04:27:46 29.354- 29.394
KKS-1 31 Aug 04:14:07 04:18:05 31° 264° (W) 04:22:02 437.445
AO-7 31 Aug 04:14:29 04:21:20 29° 93° (E) 04:28:23 29.400- 29.500
MOZHAYETS 4 31 Aug 04:19:24 04:23:45 43° 72° (ENE) 04:28:09
Cosmos 2499 31 Aug 04:22:44 04:30:31 44° 88° (E) 04:38:47 435.465 / 435.565
JAS-2 31 Aug 04:33:31 04:40:43 85° 286° (WNW) 04:47:01 435.910
Oscar 19 31 Aug 04:33:54 04:36:34 14° 300° (WNW) 04:38:58 437.125/150
GONETS M04 31 Aug 04:51:42 04:59:50 41° 289° (WNW) 05:07:56
O/OREOS (USA 219) 31 Aug 04:55:13 04:59:29 36° 59° (ENE) 05:03:44 437.305
Gurwin Techsat 1B 31 Aug 05:06:54 05:10:50 21° 297° (WNW) 05:14:38 435.225
HORYU 2 31 Aug 05:15:03 05:19:32 72° 102° (ESE) 05:23:57 437.375
PCSat 31 Aug 05:19:33 05:21:27 11° 329° (NNW) 05:23:10 145.827
VERMONT LUNAR 31 Aug 05:27:07 05:29:54 36° 166° (SSE) 05:32:40 437.305
ITAMSAT 1 31 Aug 05:30:24 05:33:32 16° 299° (WNW) 05:36:27 435.822/435.867
STRAND 1 31 Aug 05:44:29 05:45:31 11° 58° (ENE) 05:46:50 437.568
PHONESAT 2.4 31 Aug 05:55:56 05:57:19 12° 150° (SSE) 05:58:46 2401.200-2431.200
MOZHAYETS 4 31 Aug 05:57:48 06:01:13 20° 269° (W) 06:04:31
AO-7 31 Aug 06:06:34 06:14:47 65° 293° (WNW) 06:22:54 29.400- 29.500
CUTE-I 31 Aug 06:09:45 06:11:08 11° 86° (E) 06:12:54 437.470
CUBESAT XI-V 31 Aug 06:10:44 06:15:12 55° 73° (ENE) 06:19:43 437.345
Cosmos 2499 31 Aug 06:15:42 06:23:45 44° 289° (WNW) 06:32:05 435.465 / 435.565
JAS-2 31 Aug 06:20:08 06:24:41 18° 306° (NW) 06:28:42 435.910
O/OREOS (USA 219) 31 Aug 06:35:00 06:38:45 24° 257° (WSW) 06:42:24 437.305
HORYU 2 31 Aug 06:53:31 06:55:38 13° 298° (WNW) 06:57:31 437.375
PRISM 31 Aug 06:58:05 07:01:39 30° 69° (ENE) 07:05:17 437.425
Cubesat XI-IV 31 Aug 07:01:48 07:06:40 36° 96° (E) 07:11:33 437.490
VERMONT LUNAR 31 Aug 07:03:12 07:06:06 51° 184° (S) 07:09:01 437.305
STRAND 1 31 Aug 07:18:52 07:23:57 76° 75° (ENE) 07:29:05 437.568
PHONESAT 2.4 31 Aug 07:31:29 07:34:40 37° 165° (SSE) 07:37:51 2401.200-2431.200
GOMX 1 31 Aug 07:43:08 07:44:29 11° 84° (E) 07:46:13 467.674
CUTE-I 31 Aug 07:46:44 07:52:06 89° 104° (ESE) 07:57:26 437.470
CUBESAT XI-V 31 Aug 07:50:16 07:53:04 15° 271° (W) 07:55:41 437.345
AO-7 31 Aug 08:01:20 08:06:10 16° 314° (NW) 08:10:38 29.400- 29.500
HO-68 31 Aug 08:12:46 08:15:37 13° 84° (E) 08:18:58 435.675
YUBILEINY 31 Aug 08:16:14 08:24:41 48° 73° (ENE) 08:33:08 435.215
SO-50 31 Aug 08:19:53 08:21:07 11° 26° (NNE) 08:22:32 436.795
PRISM 31 Aug 08:33:51 08:37:08 22° 266° (W) 08:40:20 437.425
VERMONT LUNAR 31 Aug 08:39:42 08:42:16 26° 199° (SSW) 08:44:49 437.305
Cubesat XI-IV 31 Aug 08:42:02 08:46:43 31° 293° (WNW) 08:51:18 437.490
AIST 1 31 Aug 08:44:28 08:48:41 70° 96° (E) 08:52:56
BRITE-PL 31 Aug 08:45:27 08:50:56 69° 100° (E) 08:56:37 437.365/2234.400
CINEMA 3 31 Aug 08:50:34 08:52:26 12° 85° (E) 08:54:35 145.822/145.860
STRAND 1 31 Aug 09:01:21 09:03:51 13° 273° (W) 09:06:03 437.568
CUTE 1.7 + AOD 2 31 Aug 09:03:08 09:06:25 22° 93° (E) 09:09:47 437.475
Cosmos 2491 31 Aug 09:04:46 09:12:48 45° 89° (E) 09:20:58 435.465 / 435.565
M-CUBED/EXP-1 PRIME 31 Aug 09:06:13 09:07:46 12° 55° (NE) 09:09:32 437.505
PHONESAT 2.4 31 Aug 09:08:59 09:12:19 56° 181° (S) 09:15:40 2401.200-2431.200
CANX-2 31 Aug 09:16:37 09:20:29 34° 96° (E) 09:24:22 2200.000
GOMX 1 31 Aug 09:17:59 09:23:28 83° 102° (ESE) 09:28:59 467.674
CUTE-I 31 Aug 09:28:48 09:31:31 14° 301° (WNW) 09:33:58 437.470
ISS 31 Aug 09:30:47 09:33:48 38° 140° (SE) 09:36:51 145.825
Cosmos 2504 31 Aug 09:33:18 09:39:16 21° 60° (ENE) 09:45:21 435.465 / 435.565
DOVE 4 31 Aug 09:34:56 09:40:16 75° 100° (E) 09:45:34 437.250
SEEDS 31 Aug 09:39:11 09:43:12 43° 98° (E) 09:47:11 437.485
TIGRISAT 31 Aug 09:40:46 09:43:32 16° 63° (ENE) 09:46:29 435.000
Oscar 11 31 Aug 09:42:34 09:44:50 14° 89° (E) 09:47:17 145.826/435.025
CUSAT 1 31 Aug 09:44:13 09:48:36 17° 58° (ENE) 09:53:37 437.405
ANTELSAT 31 Aug 09:56:34 10:00:14 23° 66° (ENE) 10:03:59 437.575/2403.000
HO-68 31 Aug 09:57:27 10:04:42 77° 104° (ESE) 10:11:54 435.675
SO-50 31 Aug 09:58:18 10:03:02 43° 48° (NE) 10:07:41 436.795
COMPASS 1 31 Aug 10:02:05 10:06:13 62° 100° (E) 10:10:19 437.405
DANDE 31 Aug 10:07:15 10:11:36 17° 60° (ENE) 10:16:44 436.750
AAUSAT CUBESAT 2 31 Aug 10:12:51 10:17:00 70° 102° (ESE) 10:21:05 437.432
YUBILEINY 31 Aug 10:13:22 10:21:26 40° 273° (W) 10:29:17 435.215
CUBEBUG 2 31 Aug 10:20:04 10:24:33 42° 97° (E) 10:28:54 437.445
ZACube-1 31 Aug 10:23:13 10:27:01 26° 93° (E) 10:30:47 437.345
BRITE-PL 31 Aug 10:25:09 10:28:59 19° 296° (WNW) 10:32:43 437.365/2234.400
CINEMA 3 31 Aug 10:25:18 10:30:21 79° 284° (WNW) 10:35:15 145.822/145.860
AIST 1 31 Aug 10:25:50 10:26:57 11° 296° (WNW) 10:27:50
POLYITAN 1 31 Aug 10:28:17 10:31:02 17° 65° (ENE) 10:33:54 437.675
UWE-3 31 Aug 10:28:23 10:32:44 40° 97° (E) 10:36:58 435.000/436.395/437.385
FUNcube-1 31 Aug 10:28:49 10:32:44 29° 94° (E) 10:36:36 145.935
POPSAT HIP 1 31 Aug 10:31:02 10:33:51 18° 65° (ENE) 10:36:48 437.405
DUCHIFAT 1 31 Aug 10:32:06 10:34:51 18° 65° (ENE) 10:37:45 145.980
AUBIESAT-1 31 Aug 10:32:28 10:37:09 62° 69° (ENE) 10:41:47 437.475
PCSat 31 Aug 10:35:12 10:39:49 28° 46° (NE) 10:44:30 145.827
M-CUBED/EXP-1 PRIME 31 Aug 10:37:04 10:41:52 80° 71° (ENE) 10:46:38 437.505
CUTE 1.7 + AOD 2 31 Aug 10:38:36 10:42:25 32° 290° (WNW) 10:46:09 437.475
DELFI C3 31 Aug 10:41:24 10:45:10 39° 98° (E) 10:48:55 145.870
BUGSAT 1 31 Aug 10:43:04 10:45:07 14° 64° (ENE) 10:47:21 437.445
UNISAT 6 31 Aug 10:46:18 10:50:58 71° 74° (ENE) 10:55:42 437.425
PHONESAT 2.4 31 Aug 10:46:51 10:49:57 32° 198° (SSW) 10:53:02 2401.200-2431.200
QB50P2 31 Aug 10:47:01 10:50:33 26° 68° (ENE) 10:54:12 145.880/145.840
NANOSAT C BR1 31 Aug 10:48:32 10:52:02 26° 68° (ENE) 10:55:38 145.865
CANX-2 31 Aug 10:52:58 10:56:14 21° 293° (WNW) 10:59:24 2200.000
GOMX 1 31 Aug 10:57:44 11:00:58 16° 298° (WNW) 11:04:01 467.674
QB50P1 31 Aug 11:01:31 11:05:24 36° 71° (ENE) 11:09:21 145.935-145.965
Cosmos 2491 31 Aug 11:01:37 11:09:48 42° 289° (WNW) 11:17:53 435.465 / 435.565
ISS 31 Aug 11:07:16 11:10:16 34° 337° (NNW) 11:13:17 145.825
DX 1 31 Aug 11:09:11 11:12:07 18° 92° (E) 11:15:10 434.975-435.025
HUMSAT D 31 Aug 11:12:56 11:16:48 34° 96° (E) 11:20:39 437.325/437.525
DOVE 4 31 Aug 11:14:05 11:17:26 17° 298° (WNW) 11:20:35 437.250
TIGRISAT 31 Aug 11:15:11 11:19:49 62° 260° (W) 11:24:31 435.000
SEEDS 31 Aug 11:15:51 11:18:40 17° 294° (WNW) 11:21:21 437.485
Oscar 11 31 Aug 11:17:11 11:21:25 53° 287° (WNW) 11:25:35 145.826/435.025
UKube-1 31 Aug 11:22:22 11:25:42 22° 93° (E) 11:29:08 .
Cosmos 2504 31 Aug 11:24:15 11:32:51 88° 266° (W) 11:40:55 435.465 / 435.565
CUSAT 1 31 Aug 11:24:46 11:32:27 71° 78° (ENE) 11:40:43 437.405
50 SAT 31 Aug 11:24:57 11:27:38 18° 92° (E) 11:30:24 437.505
AISAT 31 Aug 11:28:46 11:31:59 20° 92° (E) 11:35:18 437.250
CUBEBUG 1 31 Aug 11:32:11 11:33:57 12° 88° (E) 11:35:57 437.445
ANTELSAT 31 Aug 11:32:21 11:36:46 40° 263° (W) 11:41:13 437.575/2403.000
SO-50 31 Aug 11:39:14 11:43:24 27° 247° (WSW) 11:47:23 436.795
COMPASS 1 31 Aug 11:39:30 11:41:25 13° 296° (WNW) 11:43:08 437.405
HO-68 31 Aug 11:46:16 11:51:48 24° 303° (WNW) 11:57:06 435.675
DANDE 31 Aug 11:48:24 11:55:50 74° 78° (ENE) 12:04:22 436.750
AAUSAT CUBESAT 2 31 Aug 11:50:37 11:52:04 11° 297° (WNW) 11:53:18 437.432
VELOX 1 31 Aug 11:56:30 12:00:37 36° 97° (E) 12:04:45 145.980
CUBEBUG 2 31 Aug 11:57:20 12:00:56 22° 294° (WNW) 12:04:23 437.445
ZACube-1 31 Aug 11:59:23 12:03:22 31° 291° (WNW) 12:07:14 437.345
POLYITAN 1 31 Aug 12:02:27 12:06:35 47° 261° (W) 12:10:45 437.675
FUNcube-1 31 Aug 12:05:07 12:09:00 28° 292° (WNW) 12:12:42 145.935
CINEMA 3 31 Aug 12:05:16 12:06:44 11° 301° (WNW) 12:07:56 145.822/145.860
POPSAT HIP 1 31 Aug 12:05:20 12:09:24 44° 262° (W) 12:13:32 437.405
UWE-3 31 Aug 12:05:25 12:09:00 22° 294° (WNW) 12:12:25 435.000/436.395/437.385
DUCHIFAT 1 31 Aug 12:06:16 12:10:20 45° 261° (W) 12:14:26 145.980
AUBIESAT-1 31 Aug 12:09:13 12:12:13 16° 265° (W) 12:15:00 437.475
M-CUBED/EXP-1 PRIME 31 Aug 12:15:02 12:17:11 12° 268° (W) 12:19:05 437.505
BUGSAT 1 31 Aug 12:16:10 12:20:10 55° 260° (W) 12:24:14 437.445
DELFI C3 31 Aug 12:17:15 12:19:57 17° 294° (WNW) 12:22:32 145.870
PCSat 31 Aug 12:18:17 12:23:31 50° 246° (WSW) 12:28:43 145.827
QB50P2 31 Aug 12:22:40 12:26:23 28° 265° (W) 12:30:05 145.880/145.840
NANOSAT C BR1 31 Aug 12:24:05 12:27:48 28° 265° (W) 12:31:29 145.865
UNISAT 6 31 Aug 12:26:09 12:28:20 13° 273° (W) 12:30:16 437.425
Oscar 19 31 Aug 12:33:08 12:36:37 19° 62° (ENE) 12:40:16 437.125/150
TISAT 1 31 Aug 12:37:07 12:37:29 10° 87° (E) 12:38:09 437.305
QB50P1 31 Aug 12:38:10 12:41:24 20° 268° (W) 12:44:34 145.935-145.965
DX 1 31 Aug 12:44:25 12:48:37 44° 289° (WNW) 12:52:46 434.975-435.025
ISS 31 Aug 12:45:04 12:47:23 18° 357° (N) 12:49:43 145.825
HUMSAT D 31 Aug 12:49:02 12:52:22 22° 293° (WNW) 12:55:32 437.325/437.525
ESTCUBE 1 31 Aug 12:49:11 12:53:42 82° 284° (WNW) 12:58:12 437.505/2401.250
UKube-1 31 Aug 12:57:58 13:01:57 35° 290° (WNW) 13:05:53 .
50 SAT 31 Aug 12:58:46 13:02:17 33° 289° (WNW) 13:05:43 437.505
SPROUT 31 Aug 13:03:55 13:07:58 37° 97° (E) 13:12:00 437.525
GONETS M04 31 Aug 13:03:55 13:10:33 24° 62° (ENE) 13:17:30
AISAT 31 Aug 13:04:31 13:08:46 42° 289° (WNW) 13:12:58 437.250
JAS-2 31 Aug 13:05:26 13:08:02 12° 50° (NE) 13:11:05 435.910
CUBEBUG 1 31 Aug 13:06:25 13:10:49 64° 285° (WNW) 13:15:11 437.445
CUSAT 1 31 Aug 13:08:13 13:14:35 27° 273° (W) 13:21:01 437.405
Gurwin Techsat 1B 31 Aug 13:11:21 13:13:58 14° 60° (ENE) 13:16:50 435.225
Cosmos 2504 31 Aug 13:18:31 13:23:54 18° 282° (WNW) 13:28:41 435.465 / 435.565
